Year,Month,Day,Hour,Minute,Value (Times are PST for windgust in km/hr)
2012,09,16,00,29,3.20
2012,09,16,00,30,1.60
2012,09,16,00,34,3.20
2012,09,16,00,35,3.20
2012,09,16,00,41,1.60
2012,09,16,00,43,9.60
2012,09,16,00,55,3.20
2012,09,16,00,56,3.20
2012,09,16,01,00,1.60
2012,09,16,01,01,1.60
2012,09,16,01,19,1.60
2012,09,16,01,20,4.80
2012,09,16,01,21,3.20
2012,09,16,01,22,1.60
2012,09,16,01,27,1.60
2012,09,16,01,31,1.60
2012,09,16,01,32,3.20
2012,09,16,01,33,1.60
2012,09,16,02,23,3.20
2012,09,16,02,24,1.60
2012,09,16,02,25,1.60
2012,09,16,02,34,3.20
2012,09,16,02,35,3.20
2012,09,16,02,36,1.60
2012,09,16,02,37,3.20
2012,09,16,03,20,1.60
2012,09,16,03,30,1.60
2012,09,16,03,31,1.60
2012,09,16,03,33,1.60
2012,09,16,03,34,1.60
2012,09,16,04,10,1.60
2012,09,16,04,14,1.60
2012,09,16,04,15,3.20
2012,09,16,04,16,1.60
2012,09,16,04,19,6.40
2012,09,16,04,20,4.80
2012,09,16,04,21,3.20
2012,09,16,04,22,3.20
2012,09,16,04,23,6.40
2012,09,16,04,24,8.10
2012,09,16,04,25,11.30
2012,09,16,04,26,6.40
2012,09,16,04,33,3.20
2012,09,16,04,34,1.60
2012,09,16,04,43,1.60
2012,09,16,04,44,4.80
2012,09,16,05,04,3.20
2012,09,16,05,07,1.60
2012,09,16,05,09,4.80
2012,09,16,05,10,3.20
2012,09,16,05,12,4.80
2012,09,16,05,13,3.20
2012,09,16,05,14,4.80
2012,09,16,05,15,4.80
2012,09,16,05,17,6.40
2012,09,16,05,18,6.40
2012,09,16,05,19,3.20
2012,09,16,05,21,3.20
2012,09,16,05,22,6.40
2012,09,16,05,23,6.40
2012,09,16,05,24,6.40
2012,09,16,05,25,8.10
2012,09,16,05,26,6.40
2012,09,16,05,27,6.40
2012,09,16,05,28,8.10
2012,09,16,05,29,3.20
2012,09,16,05,30,3.20
2012,09,16,05,31,4.80
2012,09,16,05,32,4.80
2012,09,16,05,33,4.80
2012,09,16,05,34,3.20
2012,09,16,05,35,6.40
2012,09,16,05,36,6.40
2012,09,16,05,37,3.20
2012,09,16,05,38,6.40
2012,09,16,05,39,3.20
2012,09,16,05,40,1.60
2012,09,16,05,41,3.20
2012,09,16,05,42,6.40
2012,09,16,05,43,4.80
2012,09,16,05,44,4.80
2012,09,16,05,45,6.40
2012,09,16,05,46,6.40
2012,09,16,05,47,4.80
2012,09,16,05,48,3.20
2012,09,16,05,49,3.20
2012,09,16,05,50,3.20
2012,09,16,05,51,4.80
2012,09,16,05,52,3.20
2012,09,16,05,53,1.60
2012,09,16,05,54,1.60
2012,09,16,05,55,4.80
2012,09,16,05,56,4.80
2012,09,16,05,57,3.20
2012,09,16,05,59,1.60
2012,09,16,06,06,1.60
2012,09,16,06,07,3.20
2012,09,16,06,08,3.20
2012,09,16,06,09,3.20
2012,09,16,06,10,1.60
2012,09,16,06,11,3.20
2012,09,16,06,12,1.60
2012,09,16,06,13,3.20
2012,09,16,06,14,3.20
2012,09,16,06,17,1.60
2012,09,16,06,21,1.60
2012,09,16,06,22,4.80
2012,09,16,06,28,1.60
2012,09,16,07,15,3.20
2012,09,16,07,16,1.60
2012,09,16,07,22,3.20
2012,09,16,07,23,3.20
2012,09,16,07,24,3.20
2012,09,16,07,29,1.60
2012,09,16,07,30,3.20
2012,09,16,07,31,3.20
2012,09,16,07,32,3.20
2012,09,16,07,33,3.20
2012,09,16,07,34,6.40
2012,09,16,07,35,4.80
2012,09,16,07,36,1.60
2012,09,16,07,39,4.80
2012,09,16,07,50,1.60
2012,09,16,07,53,1.60
2012,09,16,07,54,1.60
2012,09,16,07,57,3.20
2012,09,16,07,58,3.20
2012,09,16,07,59,1.60
2012,09,16,08,08,3.20
2012,09,16,08,15,3.20
2012,09,16,08,16,1.60
2012,09,16,08,17,3.20
2012,09,16,08,18,1.60
2012,09,16,08,19,6.40
2012,09,16,08,20,4.80
2012,09,16,08,24,1.60
2012,09,16,08,31,1.60
2012,09,16,08,32,4.80
2012,09,16,08,33,3.20
2012,09,16,08,41,1.60
2012,09,16,08,42,4.80
2012,09,16,08,43,3.20
2012,09,16,08,44,3.20
2012,09,16,08,45,3.20
2012,09,16,08,46,1.60
2012,09,16,08,48,4.80
2012,09,16,08,49,4.80
2012,09,16,08,50,11.30
2012,09,16,08,51,6.40
2012,09,16,08,52,6.40
2012,09,16,08,53,3.20
2012,09,16,08,54,3.20
2012,09,16,08,56,4.80
2012,09,16,08,57,3.20
2012,09,16,09,00,3.20
2012,09,16,09,01,3.20
2012,09,16,09,03,1.60
2012,09,16,09,04,3.20
2012,09,16,09,05,3.20
2012,09,16,09,06,3.20
2012,09,16,09,09,3.20
2012,09,16,09,10,1.60
2012,09,16,09,12,1.60
2012,09,16,09,15,3.20
2012,09,16,09,18,4.80
2012,09,16,09,19,4.80
2012,09,16,09,20,6.40
2012,09,16,09,21,4.80
2012,09,16,09,22,11.30
2012,09,16,09,23,9.60
2012,09,16,09,24,11.30
2012,09,16,09,25,17.70
2012,09,16,09,26,16.10
2012,09,16,09,27,20.90
2012,09,16,09,28,9.60
2012,09,16,09,29,8.10
2012,09,16,09,30,14.50
2012,09,16,09,31,8.10
2012,09,16,09,32,9.60
2012,09,16,09,33,14.50
2012,09,16,09,34,6.40
2012,09,16,09,35,8.10
2012,09,16,09,36,12.90
2012,09,16,09,37,12.90
2012,09,16,09,38,12.90
2012,09,16,09,39,9.60
2012,09,16,09,40,12.90
2012,09,16,09,41,11.30
2012,09,16,09,42,6.40
2012,09,16,09,43,16.10
2012,09,16,09,44,11.30
2012,09,16,09,45,16.10
2012,09,16,09,46,9.60
2012,09,16,09,47,4.80
2012,09,16,09,48,8.10
2012,09,16,09,49,6.40
2012,09,16,09,50,9.60
2012,09,16,09,51,6.40
2012,09,16,09,52,6.40
2012,09,16,09,53,1.60
2012,09,16,09,55,14.50
2012,09,16,09,56,8.10
2012,09,16,09,57,8.10
2012,09,16,09,58,8.10
2012,09,16,09,59,9.60
2012,09,16,10,00,6.40
2012,09,16,10,01,8.10
2012,09,16,10,02,9.60
2012,09,16,10,03,9.60
2012,09,16,10,04,11.30
2012,09,16,10,05,4.80
2012,09,16,10,06,11.30
2012,09,16,10,07,9.60
2012,09,16,10,08,8.10
2012,09,16,10,09,4.80
2012,09,16,10,10,8.10
2012,09,16,10,11,4.80
2012,09,16,10,12,4.80
2012,09,16,10,13,9.60
2012,09,16,10,14,12.90
2012,09,16,10,15,4.80
2012,09,16,10,16,4.80
2012,09,16,10,17,3.20
2012,09,16,10,18,1.60
2012,09,16,10,19,8.10
2012,09,16,10,20,9.60
2012,09,16,10,21,14.50
2012,09,16,10,22,8.10
2012,09,16,10,23,8.10
2012,09,16,10,24,11.30
2012,09,16,10,25,12.90
2012,09,16,10,26,8.10
2012,09,16,10,27,8.10
2012,09,16,10,28,9.60
2012,09,16,10,29,8.10
2012,09,16,10,30,11.30
2012,09,16,10,31,14.50
2012,09,16,10,32,9.60
2012,09,16,10,33,9.60
2012,09,16,10,34,8.10
2012,09,16,10,35,6.40
2012,09,16,10,36,4.80
2012,09,16,10,37,6.40
2012,09,16,10,38,8.10
2012,09,16,10,39,6.40
2012,09,16,10,40,11.30
2012,09,16,10,41,8.10
2012,09,16,10,42,11.30
2012,09,16,10,43,14.50
2012,09,16,10,44,11.30
2012,09,16,10,45,16.10
2012,09,16,10,46,17.70
2012,09,16,10,47,11.30
2012,09,16,10,48,9.60
2012,09,16,10,49,6.40
2012,09,16,10,50,11.30
2012,09,16,10,51,12.90
2012,09,16,10,52,12.90
2012,09,16,10,53,11.30
2012,09,16,10,54,16.10
2012,09,16,10,55,8.10
2012,09,16,10,56,8.10
2012,09,16,10,57,6.40
2012,09,16,10,58,6.40
2012,09,16,10,59,6.40
2012,09,16,11,00,4.80
2012,09,16,11,01,4.80
2012,09,16,11,02,4.80
2012,09,16,11,07,1.60
2012,09,16,11,09,4.80
2012,09,16,11,10,4.80
2012,09,16,11,11,4.80
2012,09,16,11,12,4.80
2012,09,16,11,13,3.20
2012,09,16,11,14,1.60
2012,09,16,11,15,1.60
2012,09,16,11,18,4.80
2012,09,16,11,19,4.80
2012,09,16,11,20,11.30
2012,09,16,11,21,16.10
2012,09,16,11,22,9.60
2012,09,16,11,23,8.10
2012,09,16,11,24,8.10
2012,09,16,11,25,14.50
2012,09,16,11,26,12.90
2012,09,16,11,27,9.60
2012,09,16,11,28,11.30
2012,09,16,11,29,4.80
2012,09,16,11,30,3.20
2012,09,16,11,31,4.80
2012,09,16,11,32,3.20
2012,09,16,11,33,4.80
2012,09,16,11,34,3.20
2012,09,16,11,35,4.80
2012,09,16,11,36,6.40
2012,09,16,11,37,3.20
2012,09,16,11,40,1.60
2012,09,16,11,41,3.20
2012,09,16,11,42,4.80
2012,09,16,11,43,6.40
2012,09,16,11,45,3.20
2012,09,16,11,46,4.80
2012,09,16,11,47,3.20
2012,09,16,11,52,1.60
2012,09,16,11,53,4.80
2012,09,16,11,54,6.40
2012,09,16,11,55,4.80
2012,09,16,11,56,4.80
2012,09,16,11,57,6.40
2012,09,16,11,58,1.60
2012,09,16,12,06,4.80
2012,09,16,12,07,8.10
2012,09,16,12,08,6.40
2012,09,16,12,09,6.40
2012,09,16,12,10,11.30
2012,09,16,12,11,12.90
2012,09,16,12,12,12.90
2012,09,16,12,13,11.30
2012,09,16,12,14,12.90
2012,09,16,12,15,11.30
2012,09,16,12,16,12.90
2012,09,16,12,17,16.10
2012,09,16,12,18,6.40
2012,09,16,12,19,3.20
2012,09,16,12,20,3.20
2012,09,16,12,21,4.80
2012,09,16,12,22,14.50
2012,09,16,12,23,19.30
2012,09,16,12,24,11.30
2012,09,16,12,25,12.90
2012,09,16,12,26,11.30
2012,09,16,12,27,9.60
2012,09,16,12,28,9.60
2012,09,16,12,29,14.50
2012,09,16,12,30,9.60
2012,09,16,12,31,8.10
2012,09,16,12,32,8.10
2012,09,16,12,33,14.50
2012,09,16,12,34,14.50
2012,09,16,12,35,11.30
2012,09,16,12,36,9.60
2012,09,16,12,37,17.70
2012,09,16,12,38,16.10
2012,09,16,12,39,14.50
2012,09,16,12,40,9.60
2012,09,16,12,41,11.30
2012,09,16,12,42,11.30
2012,09,16,12,43,11.30
2012,09,16,12,44,9.60
2012,09,16,12,45,9.60
2012,09,16,12,46,12.90
2012,09,16,12,47,6.40
2012,09,16,12,48,11.30
2012,09,16,12,49,16.10
2012,09,16,12,50,16.10
2012,09,16,12,51,11.30
2012,09,16,12,52,11.30
2012,09,16,12,53,14.50
2012,09,16,12,54,14.50
2012,09,16,12,55,9.60
2012,09,16,12,56,14.50
2012,09,16,12,57,19.30
2012,09,16,12,58,14.50
2012,09,16,12,59,8.10
2012,09,16,13,00,16.10
2012,09,16,13,01,11.30
2012,09,16,13,02,20.90
2012,09,16,13,03,9.60
2012,09,16,13,04,24.20
2012,09,16,13,05,35.40
2012,09,16,13,06,11.30
2012,09,16,13,07,20.90
2012,09,16,13,08,19.30
2012,09,16,13,09,17.70
2012,09,16,13,10,12.90
2012,09,16,13,11,14.50
2012,09,16,13,12,17.70
2012,09,16,13,13,14.50
2012,09,16,13,14,12.90
2012,09,16,13,15,17.70
2012,09,16,13,16,17.70
2012,09,16,13,17,14.50
2012,09,16,13,18,12.90
2012,09,16,13,19,12.90
2012,09,16,13,20,11.30
2012,09,16,13,21,12.90
2012,09,16,13,22,12.90
2012,09,16,13,23,14.50
2012,09,16,13,24,12.90
2012,09,16,13,25,11.30
2012,09,16,13,26,17.70
2012,09,16,13,27,14.50
2012,09,16,13,28,8.10
2012,09,16,13,29,8.10
2012,09,16,13,30,8.10
2012,09,16,13,31,14.50
2012,09,16,13,32,11.30
2012,09,16,13,33,16.10
2012,09,16,13,34,11.30
2012,09,16,13,35,8.10
2012,09,16,13,36,8.10
2012,09,16,13,37,6.40
2012,09,16,13,38,9.60
2012,09,16,13,39,17.70
2012,09,16,13,40,14.50
2012,09,16,13,41,11.30
2012,09,16,13,42,11.30
2012,09,16,13,43,12.90
2012,09,16,13,44,14.50
2012,09,16,13,45,11.30
2012,09,16,13,46,12.90
2012,09,16,13,47,9.60
2012,09,16,13,48,4.80
2012,09,16,13,49,4.80
2012,09,16,13,50,6.40
2012,09,16,13,51,4.80
2012,09,16,13,52,9.60
2012,09,16,13,53,3.20
2012,09,16,13,54,4.80
2012,09,16,13,55,4.80
2012,09,16,13,56,4.80
2012,09,16,13,57,3.20
2012,09,16,13,58,8.10
2012,09,16,13,59,4.80
2012,09,16,14,00,11.30
2012,09,16,14,01,11.30
2012,09,16,14,02,9.60
2012,09,16,14,03,4.80
2012,09,16,14,04,3.20
2012,09,16,14,05,12.90
2012,09,16,14,06,6.40
2012,09,16,14,07,6.40
2012,09,16,14,08,8.10
2012,09,16,14,09,8.10
2012,09,16,14,10,8.10
2012,09,16,14,11,14.50
2012,09,16,14,12,9.60
2012,09,16,14,13,6.40
2012,09,16,14,14,8.10
2012,09,16,14,15,4.80
2012,09,16,14,17,11.30
2012,09,16,14,18,9.60
2012,09,16,14,19,9.60
2012,09,16,14,20,6.40
2012,09,16,14,21,6.40
2012,09,16,14,22,9.60
2012,09,16,14,23,6.40
2012,09,16,14,24,19.30
2012,09,16,14,25,22.50
2012,09,16,14,26,14.50
2012,09,16,14,27,11.30
2012,09,16,14,28,12.90
2012,09,16,14,29,11.30
2012,09,16,14,30,14.50
2012,09,16,14,31,19.30
2012,09,16,14,32,14.50
2012,09,16,14,33,11.30
2012,09,16,14,34,12.90
2012,09,16,14,35,11.30
2012,09,16,14,36,12.90
2012,09,16,14,37,16.10
2012,09,16,14,38,22.50
2012,09,16,14,39,22.50
2012,09,16,14,40,16.10
2012,09,16,14,41,29.00
2012,09,16,14,42,17.70
2012,09,16,14,43,9.60
2012,09,16,14,44,14.50
2012,09,16,14,45,6.40
2012,09,16,14,46,12.90
2012,09,16,14,47,20.90
2012,09,16,14,48,17.70
2012,09,16,14,49,19.30
2012,09,16,14,50,12.90
2012,09,16,14,51,14.50
2012,09,16,14,52,9.60
2012,09,16,14,53,16.10
2012,09,16,14,54,9.60
2012,09,16,14,55,12.90
2012,09,16,14,56,12.90
2012,09,16,14,57,16.10
2012,09,16,14,58,11.30
2012,09,16,14,59,17.70
2012,09,16,15,00,12.90
2012,09,16,15,01,11.30
2012,09,16,15,02,4.80
2012,09,16,15,03,17.70
2012,09,16,15,04,12.90
2012,09,16,15,05,16.10
2012,09,16,15,06,9.60
2012,09,16,15,07,17.70
2012,09,16,15,08,17.70
2012,09,16,15,09,6.40
2012,09,16,15,10,14.50
2012,09,16,15,11,19.30
2012,09,16,15,12,9.60
2012,09,16,15,13,12.90
2012,09,16,15,14,12.90
2012,09,16,15,15,19.30
2012,09,16,15,16,16.10
2012,09,16,15,17,22.50
2012,09,16,15,18,17.70
2012,09,16,15,19,16.10
2012,09,16,15,20,9.60
2012,09,16,15,21,12.90
2012,09,16,15,22,16.10
2012,09,16,15,23,8.10
2012,09,16,15,24,11.30
2012,09,16,15,25,14.50
2012,09,16,15,26,11.30
2012,09,16,15,27,12.90
2012,09,16,15,28,16.10
2012,09,16,15,29,16.10
2012,09,16,15,30,6.40
2012,09,16,15,31,24.20
2012,09,16,15,32,20.90
2012,09,16,15,33,12.90
2012,09,16,15,34,4.80
2012,09,16,15,35,1.60
2012,09,16,15,36,16.10
2012,09,16,15,37,9.60
2012,09,16,15,38,12.90
2012,09,16,15,39,9.60
2012,09,16,15,40,14.50
2012,09,16,15,41,11.30
2012,09,16,15,42,11.30
2012,09,16,15,43,11.30
2012,09,16,15,44,12.90
2012,09,16,15,45,9.60
2012,09,16,15,46,8.10
2012,09,16,15,47,9.60
2012,09,16,15,48,32.20
2012,09,16,15,49,29.00
2012,09,16,15,50,19.30
2012,09,16,15,51,12.90
2012,09,16,15,52,12.90
2012,09,16,15,53,6.40
2012,09,16,15,54,14.50
2012,09,16,15,55,11.30
2012,09,16,15,56,4.80
2012,09,16,15,57,14.50
2012,09,16,15,58,8.10
2012,09,16,15,59,9.60
2012,09,16,16,00,8.10
2012,09,16,16,01,8.10
2012,09,16,16,02,12.90
2012,09,16,16,03,3.20
2012,09,16,16,04,11.30
2012,09,16,16,05,6.40
2012,09,16,16,06,17.70
2012,09,16,16,07,14.50
2012,09,16,16,08,22.50
2012,09,16,16,09,11.30
2012,09,16,16,10,16.10
2012,09,16,16,11,12.90
2012,09,16,16,12,16.10
2012,09,16,16,13,11.30
2012,09,16,16,14,9.60
2012,09,16,16,15,12.90
2012,09,16,16,16,20.90
2012,09,16,16,17,20.90
2012,09,16,16,18,14.50
2012,09,16,16,19,20.90
2012,09,16,16,20,17.70
2012,09,16,16,21,20.90
2012,09,16,16,22,27.40
2012,09,16,16,23,27.40
2012,09,16,16,24,17.70
2012,09,16,16,25,20.90
2012,09,16,16,26,37.00
2012,09,16,16,27,12.90
2012,09,16,16,28,11.30
2012,09,16,16,29,12.90
2012,09,16,16,30,14.50
2012,09,16,16,31,14.50
2012,09,16,16,32,11.30
2012,09,16,16,33,17.70
2012,09,16,16,34,19.30
2012,09,16,16,35,17.70
2012,09,16,16,36,12.90
2012,09,16,16,37,17.70
2012,09,16,16,38,6.40
2012,09,16,16,39,16.10
2012,09,16,16,40,12.90
2012,09,16,16,41,17.70
2012,09,16,16,42,27.40
2012,09,16,16,43,27.40
2012,09,16,16,44,27.40
2012,09,16,16,45,17.70
2012,09,16,16,46,20.90
2012,09,16,16,47,19.30
2012,09,16,16,48,24.20
2012,09,16,16,49,32.20
2012,09,16,16,50,27.40
2012,09,16,16,51,9.60
2012,09,16,16,52,16.10
2012,09,16,16,53,12.90
2012,09,16,16,54,22.50
2012,09,16,16,55,17.70
2012,09,16,16,56,16.10
2012,09,16,16,57,14.50
2012,09,16,16,58,29.00
2012,09,16,16,59,20.90
2012,09,16,17,00,16.10
2012,09,16,17,01,24.20
2012,09,16,17,02,6.40
2012,09,16,17,03,17.70
2012,09,16,17,04,27.40
2012,09,16,17,05,12.90
2012,09,16,17,06,16.10
2012,09,16,17,07,19.30
2012,09,16,17,08,14.50
2012,09,16,17,09,11.30
2012,09,16,17,10,17.70
2012,09,16,17,11,37.00
2012,09,16,17,12,19.30
2012,09,16,17,13,14.50
2012,09,16,17,14,12.90
2012,09,16,17,15,22.50
2012,09,16,17,16,8.10
2012,09,16,17,17,11.30
2012,09,16,17,18,12.90
2012,09,16,17,19,14.50
2012,09,16,17,20,20.90
2012,09,16,17,21,12.90
2012,09,16,17,22,12.90
2012,09,16,17,23,27.40
2012,09,16,17,24,17.70
2012,09,16,17,25,14.50
2012,09,16,17,26,24.20
2012,09,16,17,27,17.70
2012,09,16,17,28,20.90
2012,09,16,17,29,17.70
2012,09,16,17,30,29.00
2012,09,16,17,31,16.10
2012,09,16,17,32,17.70
2012,09,16,17,33,17.70
2012,09,16,17,34,17.70
2012,09,16,17,35,16.10
2012,09,16,17,36,35.40
2012,09,16,17,37,17.70
2012,09,16,17,38,9.60
2012,09,16,17,39,20.90
2012,09,16,17,40,19.30
2012,09,16,17,41,14.50
2012,09,16,17,42,17.70
2012,09,16,17,43,22.50
2012,09,16,17,44,25.70
2012,09,16,17,45,19.30
2012,09,16,17,46,19.30
2012,09,16,17,47,17.70
2012,09,16,17,48,17.70
2012,09,16,17,49,11.30
2012,09,16,17,50,16.10
2012,09,16,17,51,12.90
2012,09,16,17,52,12.90
2012,09,16,17,53,19.30
2012,09,16,17,54,14.50
2012,09,16,17,55,8.10
2012,09,16,17,56,17.70
2012,09,16,17,57,20.90
2012,09,16,17,58,22.50
2012,09,16,17,59,16.10
2012,09,16,18,00,14.50
2012,09,16,18,01,8.10
2012,09,16,18,02,8.10
2012,09,16,18,03,11.30
2012,09,16,18,04,12.90
2012,09,16,18,05,17.70
2012,09,16,18,06,11.30
2012,09,16,18,07,19.30
2012,09,16,18,08,20.90
2012,09,16,18,09,20.90
2012,09,16,18,10,12.90
2012,09,16,18,11,32.20
2012,09,16,18,12,16.10
2012,09,16,18,13,12.90
2012,09,16,18,14,20.90
2012,09,16,18,15,19.30
2012,09,16,18,16,27.40
2012,09,16,18,17,14.50
2012,09,16,18,18,22.50
2012,09,16,18,19,14.50
2012,09,16,18,20,30.60
2012,09,16,18,21,22.50
2012,09,16,18,22,20.90
2012,09,16,18,23,25.70
2012,09,16,18,24,20.90
2012,09,16,18,25,19.30
2012,09,16,18,26,25.70
2012,09,16,18,27,27.40
2012,09,16,18,28,17.70
2012,09,16,18,29,27.40
2012,09,16,18,30,33.80
2012,09,16,18,31,25.70
2012,09,16,18,32,14.50
2012,09,16,18,33,16.10
2012,09,16,18,34,22.50
2012,09,16,18,35,9.60
2012,09,16,18,36,19.30
2012,09,16,18,37,9.60
2012,09,16,18,38,14.50
2012,09,16,18,39,14.50
2012,09,16,18,40,11.30
2012,09,16,18,41,17.70
2012,09,16,18,42,19.30
2012,09,16,18,43,12.90
2012,09,16,18,44,19.30
2012,09,16,18,45,22.50
2012,09,16,18,46,20.90
2012,09,16,18,47,32.20
2012,09,16,18,48,20.90
2012,09,16,18,49,17.70
2012,09,16,18,50,8.10
2012,09,16,18,51,8.10
2012,09,16,18,52,17.70
2012,09,16,18,53,29.00
2012,09,16,18,54,4.80
2012,09,16,18,55,11.30
2012,09,16,18,56,24.20
2012,09,16,18,57,14.50
2012,09,16,18,58,14.50
2012,09,16,18,59,11.30
2012,09,16,19,00,25.70
2012,09,16,19,01,19.30
2012,09,16,19,02,22.50
2012,09,16,19,03,17.70
2012,09,16,19,04,24.20
2012,09,16,19,05,8.10
2012,09,16,19,06,25.70
2012,09,16,19,07,12.90
2012,09,16,19,08,12.90
2012,09,16,19,09,20.90
2012,09,16,19,10,25.70
2012,09,16,19,11,12.90
2012,09,16,19,12,14.50
2012,09,16,19,13,22.50
2012,09,16,19,14,29.00
2012,09,16,19,15,14.50
2012,09,16,19,16,14.50
2012,09,16,19,17,11.30
2012,09,16,19,18,14.50
2012,09,16,19,19,16.10
2012,09,16,19,20,24.20
2012,09,16,19,21,20.90
2012,09,16,19,22,24.20
2012,09,16,19,23,27.40
2012,09,16,19,24,20.90
2012,09,16,19,25,14.50
2012,09,16,19,26,19.30
2012,09,16,19,27,29.00
2012,09,16,19,28,20.90
2012,09,16,19,29,9.60
2012,09,16,19,30,16.10
2012,09,16,19,31,17.70
2012,09,16,19,32,16.10
2012,09,16,19,33,29.00
2012,09,16,19,34,14.50
2012,09,16,19,35,11.30
2012,09,16,19,36,14.50
2012,09,16,19,37,22.50
2012,09,16,19,38,29.00
2012,09,16,19,39,24.20
2012,09,16,19,40,17.70
2012,09,16,19,41,25.70
2012,09,16,19,42,8.10
2012,09,16,19,43,12.90
2012,09,16,19,44,11.30
2012,09,16,19,45,9.60
2012,09,16,19,46,11.30
2012,09,16,19,47,17.70
2012,09,16,19,48,19.30
2012,09,16,19,49,11.30
2012,09,16,19,50,12.90
2012,09,16,19,51,8.10
2012,09,16,19,52,6.40
2012,09,16,19,53,11.30
2012,09,16,19,54,8.10
2012,09,16,19,55,11.30
2012,09,16,19,56,14.50
2012,09,16,19,57,12.90
2012,09,16,19,58,9.60
2012,09,16,19,59,14.50
2012,09,16,20,00,9.60
2012,09,16,20,01,12.90
2012,09,16,20,02,8.10
2012,09,16,20,03,9.60
2012,09,16,20,04,6.40
2012,09,16,20,05,17.70
2012,09,16,20,06,14.50
2012,09,16,20,07,6.40
2012,09,16,20,08,12.90
2012,09,16,20,09,12.90
2012,09,16,20,10,12.90
2012,09,16,20,11,9.60
2012,09,16,20,12,17.70
2012,09,16,20,13,20.90
2012,09,16,20,14,25.70
2012,09,16,20,15,8.10
2012,09,16,20,16,4.80
2012,09,16,20,17,6.40
2012,09,16,20,18,12.90
2012,09,16,20,19,12.90
2012,09,16,20,20,6.40
2012,09,16,20,21,8.10
2012,09,16,20,22,11.30
2012,09,16,20,23,6.40
2012,09,16,20,24,6.40
2012,09,16,20,25,6.40
2012,09,16,20,26,9.60
2012,09,16,20,27,1.60
2012,09,16,20,28,6.40
2012,09,16,20,29,6.40
2012,09,16,20,30,6.40
2012,09,16,20,31,6.40
2012,09,16,20,32,11.30
2012,09,16,20,33,22.50
2012,09,16,20,34,8.10
2012,09,16,20,35,16.10
2012,09,16,20,36,14.50
2012,09,16,20,37,8.10
2012,09,16,20,38,8.10
2012,09,16,20,39,11.30
2012,09,16,20,40,16.10
2012,09,16,20,41,11.30
2012,09,16,20,42,8.10
2012,09,16,20,43,19.30
2012,09,16,20,44,8.10
2012,09,16,20,45,11.30
2012,09,16,20,46,14.50
2012,09,16,20,47,20.90
2012,09,16,20,48,25.70
2012,09,16,20,49,8.10
2012,09,16,20,50,14.50
2012,09,16,20,51,16.10
2012,09,16,20,52,19.30
2012,09,16,20,53,14.50
2012,09,16,20,54,22.50
2012,09,16,20,55,22.50
2012,09,16,20,56,14.50
2012,09,16,20,57,17.70
2012,09,16,20,58,22.50
2012,09,16,20,59,19.30
2012,09,16,21,00,12.90
2012,09,16,21,01,9.60
2012,09,16,21,02,6.40
2012,09,16,21,03,14.50
2012,09,16,21,04,9.60
2012,09,16,21,05,14.50
2012,09,16,21,06,14.50
2012,09,16,21,07,17.70
2012,09,16,21,08,19.30
2012,09,16,21,09,17.70
2012,09,16,21,10,22.50
2012,09,16,21,11,14.50
2012,09,16,21,12,22.50
2012,09,16,21,13,25.70
2012,09,16,21,14,16.10
2012,09,16,21,15,22.50
2012,09,16,21,16,14.50
2012,09,16,21,17,17.70
2012,09,16,21,18,24.20
2012,09,16,21,19,29.00
2012,09,16,21,20,20.90
2012,09,16,21,21,20.90
2012,09,16,21,22,14.50
2012,09,16,21,23,22.50
2012,09,16,21,24,40.20
2012,09,16,21,25,12.90
2012,09,16,21,26,11.30
2012,09,16,21,27,19.30
2012,09,16,21,28,19.30
2012,09,16,21,29,8.10
2012,09,16,21,30,22.50
2012,09,16,21,31,14.50
2012,09,16,21,32,17.70
2012,09,16,21,33,17.70
2012,09,16,21,34,19.30
2012,09,16,21,35,14.50
2012,09,16,21,36,9.60
2012,09,16,21,37,20.90
2012,09,16,21,38,12.90
2012,09,16,21,39,16.10
2012,09,16,21,40,25.70
2012,09,16,21,41,9.60
2012,09,16,21,42,14.50
2012,09,16,21,43,11.30
2012,09,16,21,44,8.10
2012,09,16,21,45,17.70
2012,09,16,21,46,24.20
2012,09,16,21,47,16.10
2012,09,16,21,48,20.90
2012,09,16,21,49,17.70
2012,09,16,21,50,17.70
2012,09,16,21,51,19.30
2012,09,16,21,52,14.50
2012,09,16,21,53,27.40
2012,09,16,21,54,24.20
2012,09,16,21,55,16.10
2012,09,16,21,56,17.70
2012,09,16,21,57,14.50
2012,09,16,21,58,30.60
2012,09,16,21,59,29.00
2012,09,16,22,00,14.50
2012,09,16,22,01,30.60
2012,09,16,22,02,8.10
2012,09,16,22,03,17.70
2012,09,16,22,04,17.70
2012,09,16,22,05,27.40
2012,09,16,22,06,35.40
2012,09,16,22,07,27.40
2012,09,16,22,08,14.50
2012,09,16,22,09,12.90
2012,09,16,22,10,14.50
2012,09,16,22,11,20.90
2012,09,16,22,12,17.70
2012,09,16,22,13,14.50
2012,09,16,22,14,12.90
2012,09,16,22,15,17.70
2012,09,16,22,16,17.70
2012,09,16,22,17,12.90
2012,09,16,22,18,19.30
2012,09,16,22,19,27.40
2012,09,16,22,20,17.70
2012,09,16,22,21,12.90
2012,09,16,22,22,9.60
2012,09,16,22,23,12.90
2012,09,16,22,24,4.80
2012,09,16,22,25,11.30
2012,09,16,22,26,11.30
2012,09,16,22,27,14.50
2012,09,16,22,28,11.30
2012,09,16,22,29,30.60
2012,09,16,22,30,24.20
2012,09,16,22,31,19.30
2012,09,16,22,32,14.50
2012,09,16,22,33,14.50
2012,09,16,22,34,12.90
2012,09,16,22,35,14.50
2012,09,16,22,36,12.90
2012,09,16,22,37,8.10
2012,09,16,22,38,11.30
2012,09,16,22,39,22.50
2012,09,16,22,40,9.60
2012,09,16,22,41,11.30
2012,09,16,22,42,12.90
2012,09,16,22,43,9.60
2012,09,16,22,44,16.10
2012,09,16,22,45,9.60
2012,09,16,22,46,17.70
2012,09,16,22,47,12.90
2012,09,16,22,48,12.90
2012,09,16,22,49,4.80
2012,09,16,22,50,8.10
2012,09,16,22,51,11.30
2012,09,16,22,52,14.50
2012,09,16,22,53,9.60
2012,09,16,22,54,12.90
2012,09,16,22,55,9.60
2012,09,16,22,56,9.60
2012,09,16,22,57,8.10
2012,09,16,22,58,8.10
2012,09,16,22,59,11.30
2012,09,16,23,00,12.90
2012,09,16,23,01,12.90
2012,09,16,23,02,12.90
2012,09,16,23,03,16.10
2012,09,16,23,04,14.50
2012,09,16,23,05,12.90
2012,09,16,23,06,9.60
2012,09,16,23,07,12.90
2012,09,16,23,08,17.70
2012,09,16,23,09,14.50
2012,09,16,23,10,9.60
2012,09,16,23,11,22.50
2012,09,16,23,12,16.10
2012,09,16,23,13,20.90
2012,09,16,23,14,14.50
2012,09,16,23,15,12.90
2012,09,16,23,16,11.30
2012,09,16,23,17,14.50
2012,09,16,23,18,14.50
2012,09,16,23,19,24.20
2012,09,16,23,20,19.30
2012,09,16,23,21,12.90
2012,09,16,23,22,17.70
2012,09,16,23,23,14.50
2012,09,16,23,24,22.50
2012,09,16,23,25,14.50
2012,09,16,23,26,11.30
2012,09,16,23,27,9.60
2012,09,16,23,28,12.90
2012,09,16,23,29,19.30
2012,09,16,23,30,14.50
2012,09,16,23,31,22.50
2012,09,16,23,32,19.30
2012,09,16,23,33,24.20
2012,09,16,23,34,20.90
2012,09,16,23,35,16.10
2012,09,16,23,36,17.70
2012,09,16,23,37,20.90
2012,09,16,23,38,12.90
2012,09,16,23,39,20.90
2012,09,16,23,40,14.50
2012,09,16,23,41,17.70
2012,09,16,23,42,17.70
2012,09,16,23,43,14.50
2012,09,16,23,44,6.40
2012,09,16,23,45,11.30
2012,09,16,23,46,11.30
2012,09,16,23,47,24.20
2012,09,16,23,48,19.30
2012,09,16,23,49,17.70
2012,09,16,23,50,20.90
2012,09,16,23,51,17.70
2012,09,16,23,52,17.70
2012,09,16,23,53,14.50
2012,09,16,23,54,14.50
2012,09,16,23,55,14.50
2012,09,16,23,56,11.30
2012,09,16,23,57,12.90
2012,09,16,23,58,17.70
2012,09,16,23,59,17.70
